Total_Precipitation_Accumulation
0.10 0.14 0.36 0.48 0.52 0.42 0.33 0.26 0.23 0.22 0.22 0.21 0.21 0.20 0.19 0.19 0.19 0.19 0.20 0.22 0.24 0.29 0.36 0.39 0.42 0.55 0.54 0.39 0.27 0.17 0.14 0.11 0.09 0.09 0.08 0.11 0.13 0.16 0.14 0.14 0.16 0.21 0.27
0.10 0.16 0.36 0.51 0.60 0.52 0.44 0.34 0.25 0.21 0.22 0.24 0.25 0.25 0.24 0.22 0.22 0.25 0.28 0.30 0.32 0.36 0.39 0.43 0.46 0.51 0.48 0.36 0.21 0.10 0.07 0.05 0.04 0.03 0.02 0.03 0.08 0.12 0.10 0.09 0.12 0.20 0.24
0.12 0.20 0.36 0.53 0.65 0.60 0.54 0.46 0.35 0.29 0.26 0.29 0.32 0.32 0.32 0.29 0.29 0.31 0.34 0.36 0.39 0.38 0.39 0.45 0.45 0.43 0.38 0.30 0.19 0.10 0.07 0.05 0.04 0.03 0.03 0.04 0.11 0.14 0.12 0.12 0.16 0.21 0.23
0.16 0.23 0.36 0.51 0.67 0.66 0.62 0.55 0.49 0.45 0.39 0.37 0.39 0.41 0.42 0.37 0.35 0.36 0.37 0.37 0.38 0.35 0.34 0.35 0.31 0.28 0.20 0.16 0.14 0.11 0.09 0.06 0.04 0.04 0.04 0.06 0.12 0.21 0.21 0.20 0.22 0.23 0.23
0.28 0.33 0.46 0.57 0.68 0.72 0.66 0.65 0.60 0.58 0.54 0.50 0.47 0.48 0.51 0.48 0.42 0.41 0.38 0.36 0.33 0.29 0.27 0.26 0.21 0.16 0.12 0.10 0.09 0.10 0.08 0.06 0.04 0.04 0.04 0.06 0.12 0.24 0.23 0.21 0.21 0.21 0.24
0.41 0.44 0.56 0.66 0.74 0.77 0.70 0.66 0.66 0.64 0.63 0.60 0.53 0.52 0.55 0.58 0.54 0.44 0.39 0.34 0.28 0.25 0.23 0.20 0.17 0.14 0.11 0.09 0.08 0.08 0.07 0.06 0.04 0.04 0.05 0.07 0.10 0.21 0.21 0.18 0.18 0.20 0.22
0.57 0.60 0.68 0.81 0.92 0.96 0.89 0.80 0.72 0.68 0.66 0.65 0.58 0.55 0.58 0.62 0.62 0.51 0.41 0.33 0.25 0.22 0.19 0.16 0.14 0.13 0.12 0.10 0.09 0.08 0.06 0.05 0.04 0.04 0.06 0.08 0.11 0.21 0.20 0.18 0.18 0.19 0.20
0.71 0.75 0.85 0.99 1.04 1.12 1.05 0.94 0.87 0.80 0.73 0.69 0.67 0.67 0.64 0.64 0.67 0.56 0.40 0.33 0.29 0.23 0.20 0.17 0.15 0.13 0.12 0.12 0.11 0.09 0.06 0.04 0.03 0.03 0.04 0.06 0.10 0.18 0.19 0.17 0.18 0.18 0.17
0.94 1.00 1.04 1.09 1.12 1.24 1.11 0.97 0.95 0.91 0.87 0.80 0.74 0.74 0.67 0.64 0.63 0.54 0.38 0.32 0.31 0.28 0.23 0.20 0.19 0.17 0.14 0.13 0.12 0.09 0.07 0.04 0.02 0.02 0.03 0.05 0.08 0.15 0.18 0.18 0.19 0.21 0.19
1.16 1.22 1.17 1.15 1.18 1.30 1.24 1.04 0.93 0.87 0.86 0.89 0.83 0.73 0.58 0.53 0.58 0.54 0.37 0.33 0.31 0.28 0.24 0.22 0.19 0.19 0.17 0.13 0.11 0.08 0.07 0.05 0.04 0.04 0.05 0.05 0.09 0.13 0.16 0.19 0.20 0.22 0.22
1.46 1.44 1.40 1.29 1.22 1.27 1.29 1.12 1.03 0.94 0.89 0.90 0.88 0.70 0.60 0.57 0.56 0.51 0.35 0.26 0.29 0.28 0.24 0.23 0.23 0.21 0.18 0.14 0.11 0.07 0.06 0.06 0.05 0.05 0.06 0.05 0.09 0.13 0.15 0.18 0.19 0.19 0.18
1.57 1.57 1.57 1.41 1.35 1.34 1.32 1.26 1.22 1.09 0.98 0.93 0.87 0.80 0.70 0.64 0.62 0.54 0.43 0.28 0.26 0.27 0.27 0.27 0.26 0.26 0.20 0.15 0.11 0.09 0.07 0.06 0.07 0.06 0.05 0.05 0.10 0.14 0.17 0.18 0.17 0.18 0.17
1.71 1.73 1.76 1.60 1.55 1.45 1.35 1.27 1.27 1.16 1.08 1.02 0.96 0.89 0.83 0.77 0.67 0.68 0.60 0.46 0.37 0.28 0.29 0.27 0.28 0.23 0.20 0.18 0.16 0.12 0.09 0.08 0.08 0.07 0.05 0.06 0.09 0.15 0.21 0.24 0.21 0.20 0.22
1.96 1.98 1.93 1.84 1.72 1.61 1.45 1.26 1.15 1.13 1.06 1.00 0.93 0.95 0.92 0.84 0.73 0.65 0.63 0.52 0.45 0.35 0.31 0.29 0.25 0.21 0.19 0.19 0.20 0.15 0.12 0.10 0.08 0.07 0.05 0.04 0.05 0.12 0.18 0.23 0.24 0.24 0.29
2.20 2.19 2.16 2.05 1.85 1.67 1.56 1.41 1.16 1.03 0.95 0.96 0.95 0.90 0.87 0.79 0.69 0.66 0.67 0.63 0.54 0.44 0.38 0.34 0.29 0.25 0.22 0.21 0.21 0.17 0.15 0.13 0.11 0.09 0.06 0.04 0.04 0.07 0.14 0.19 0.24 0.29 0.33
2.35 2.43 2.43 2.22 2.03 1.72 1.57 1.50 1.30 1.09 0.97 0.95 0.94 0.90 0.87 0.80 0.70 0.66 0.63 0.66 0.62 0.56 0.51 0.46 0.39 0.37 0.33 0.29 0.25 0.21 0.20 0.19 0.17 0.15 0.12 0.09 0.06 0.07 0.11 0.17 0.28 0.36 0.41
2.45 2.61 2.64 2.51 2.31 1.90 1.62 1.51 1.39 1.23 1.11 1.02 0.92 0.89 0.87 0.85 0.81 0.75 0.68 0.65 0.65 0.65 0.65 0.62 0.56 0.52 0.45 0.37 0.30 0.28 0.24 0.21 0.18 0.18 0.16 0.15 0.14 0.11 0.10 0.15 0.26 0.36 0.41
2.48 2.63 2.70 2.65 2.52 2.18 1.79 1.62 1.47 1.33 1.23 1.13 1.06 1.02 0.93 0.90 0.90 0.89 0.77 0.67 0.65 0.70 0.71 0.65 0.61 0.57 0.46 0.40 0.35 0.30 0.27 0.23 0.21 0.19 0.18 0.15 0.14 0.14 0.12 0.13 0.18 0.28 0.35
2.30 2.54 2.78 2.72 2.61 2.43 2.13 1.89 1.72 1.51 1.38 1.27 1.12 1.05 1.07 1.04 1.01 1.00 0.84 0.71 0.67 0.68 0.67 0.69 0.66 0.61 0.51 0.44 0.41 0.36 0.32 0.27 0.23 0.21 0.18 0.16 0.14 0.14 0.14 0.13 0.14 0.17 0.24
2.12 2.39 2.62 2.86 2.79 2.79 2.69 2.35 2.03 1.78 1.53 1.40 1.23 1.09 1.07 1.08 1.08 1.10 1.00 0.85 0.81 0.74 0.65 0.63 0.64 0.69 0.65 0.58 0.54 0.47 0.41 0.35 0.30 0.26 0.22 0.19 0.16 0.14 0.13 0.13 0.13 0.13 0.17
1.94 2.20 2.36 2.53 2.70 2.77 2.71 2.39 2.03 1.78 1.67 1.58 1.41 1.27 1.18 1.13 1.11 1.12 1.12 1.02 0.91 0.82 0.73 0.68 0.66 0.67 0.72 0.77 0.76 0.64 0.52 0.44 0.36 0.30 0.26 0.22 0.19 0.16 0.16 0.17 0.20 0.20 0.20
1.70 1.86 2.15 2.19 2.40 2.45 2.40 2.39 2.20 2.08 1.96 1.83 1.69 1.48 1.34 1.28 1.19 1.12 1.10 1.08 0.99 0.91 0.89 0.89 0.85 0.79 0.75 0.80 0.87 0.84 0.69 0.57 0.43 0.33 0.29 0.26 0.25 0.24 0.22 0.21 0.21 0.24 0.26
1.40 1.69 1.83 1.92 2.10 2.30 2.37 2.51 2.59 2.52 2.21 1.93 1.75 1.66 1.53 1.45 1.36 1.24 1.15 1.15 1.12 1.00 0.93 0.96 1.01 1.02 1.01 1.00 0.98 1.10 1.00 0.73 0.54 0.40 0.33 0.30 0.29 0.31 0.30 0.29 0.28 0.29 0.30
1.05 1.40 1.73 1.90 2.01 2.18 2.44 2.45 2.37 2.24 2.02 1.76 1.74 1.78 1.75 1.64 1.53 1.39 1.30 1.25 1.23 1.18 1.09 1.11 1.13 1.18 1.23 1.21 1.16 1.10 1.05 0.91 0.86 0.65 0.41 0.34 0.32 0.30 0.31 0.33 0.31 0.29 0.29
0.88 1.13 1.42 1.70 1.96 2.15 2.25 2.29 2.33 2.17 1.98 1.92 1.85 1.81 1.72 1.62 1.56 1.48 1.43 1.40 1.37 1.33 1.31 1.35 1.35 1.34 1.34 1.33 1.29 1.24 1.22 1.11 1.00 0.95 0.71 0.50 0.46 0.41 0.36 0.35 0.34 0.35 0.37
0.76 0.91 1.17 1.43 1.59 1.82 2.03 2.11 2.14 2.11 2.10 2.04 1.86 1.77 1.77 1.74 1.66 1.56 1.54 1.54 1.54 1.52 1.47 1.45 1.47 1.51 1.51 1.47 1.45 1.36 1.31 1.25 1.12 1.14 1.03 0.78 0.70 0.61 0.54 0.48 0.46 0.45 0.45